Hourly Weather Bolshie Motykaly

Today, 20 June, Sunday

Time Temperature Precipitation Wind Pressure Humidity
00:00 +20°C° 0 mm 2 mps 751 mmHg 88%
01:00 +19°C° 0 mm 2 mps 751 mmHg 90%
02:00 +19°C° 0 mm 2 mps 751 mmHg 91%
03:00 +19°C° 0 mm 2 mps 751 mmHg 91%
04:00 +19°C° 0 mm 2 mps 751 mmHg 92%
05:00 +18°C° 0 mm 2 mps 750 mmHg 92%
06:00 +20°C° 0 mm 2 mps 750 mmHg 86%
07:00 +22°C° 0 mm 3 mps 750 mmHg 80%
08:00 +24°C° 0 mm 3 mps 750 mmHg 74%
09:00 +26°C° 0 mm 4 mps 750 mmHg 70%
10:00 +27°C° 0 mm 4 mps 750 mmHg 66%
11:00 +28°C° 0 mm 5 mps 750 mmHg 63%
12:00 +29°C° 0.2 mm 5 mps 750 mmHg 61%
13:00 +29°C° 0.2 mm 5 mps 750 mmHg 60%
14:00 +30°C° 0.2 mm 5 mps 749 mmHg 58%
15:00 +30°C° 0.1 mm 4 mps 749 mmHg 59%
16:00 +30°C° 0.1 mm 4 mps 749 mmHg 59%
17:00 +30°C° 0.1 mm 4 mps 749 mmHg 59%
18:00 +28°C° 0.1 mm 3 mps 748 mmHg 65%
19:00 +27°C° 0.1 mm 3 mps 748 mmHg 72%
20:00 +26°C° 0.1 mm 3 mps 748 mmHg 78%
21:00 +25°C° 0.3 mm 3 mps 748 mmHg 82%
22:00 +24°C° 0.3 mm 3 mps 748 mmHg 86%
23:00 +22°C° 0.3 mm 3 mps 748 mmHg 89%

Tomorrow, 21 June, Monday

Time Temperature Precipitation Wind Pressure Humidity
00:00 +21°C° 0 mm 3 mps 748 mmHg 90%
01:00 +20°C° 0 mm 3 mps 748 mmHg 91%
02:00 +20°C° 0 mm 3 mps 748 mmHg 91%
03:00 +19°C° 0 mm 3 mps 748 mmHg 92%
04:00 +19°C° 0 mm 3 mps 748 mmHg 93%
05:00 +19°C° 0 mm 3 mps 747 mmHg 94%
06:00 +20°C° 0 mm 3 mps 748 mmHg 89%
07:00 +21°C° 0 mm 4 mps 748 mmHg 84%
08:00 +23°C° 0 mm 4 mps 748 mmHg 78%
09:00 +25°C° 0 mm 5 mps 747 mmHg 72%
10:00 +26°C° 0 mm 5 mps 747 mmHg 66%
11:00 +28°C° 0 mm 5 mps 747 mmHg 60%
12:00 +28°C° 0.1 mm 5 mps 747 mmHg 61%
13:00 +28°C° 0.1 mm 5 mps 747 mmHg 61%
14:00 +27°C° 0.1 mm 5 mps 747 mmHg 62%
15:00 +27°C° 0.1 mm 5 mps 746 mmHg 63%
16:00 +27°C° 0.1 mm 4 mps 746 mmHg 64%
17:00 +27°C° 0.1 mm 3 mps 746 mmHg 66%
18:00 +26°C° 0.1 mm 3 mps 746 mmHg 71%
19:00 +25°C° 0.1 mm 3 mps 746 mmHg 76%
20:00 +25°C° 0.1 mm 3 mps 746 mmHg 80%
21:00 +24°C° 0 mm 3 mps 746 mmHg 83%
22:00 +22°C° 0 mm 3 mps 746 mmHg 86%
23:00 +21°C° 0 mm 3 mps 746 mmHg 88%

Day after tomorrow, 22 June, Tuesday

Time Temperature Precipitation Wind Pressure Humidity
00:00 +20°C° 0 mm 3 mps 746 mmHg 90%
01:00 +20°C° 0 mm 3 mps 746 mmHg 91%
02:00 +20°C° 0 mm 2 mps 746 mmHg 93%
03:00 +19°C° 0 mm 2 mps 746 mmHg 93%
04:00 +19°C° 0 mm 2 mps 746 mmHg 94%
05:00 +19°C° 0 mm 2 mps 746 mmHg 94%
06:00 +21°C° 0 mm 3 mps 746 mmHg 88%
07:00 +24°C° 0 mm 3 mps 746 mmHg 81%
08:00 +25°C° 0 mm 4 mps 746 mmHg 75%
09:00 +27°C° 0 mm 4 mps 747 mmHg 69%
10:00 +28°C° 0 mm 4 mps 747 mmHg 63%
11:00 +29°C° 0 mm 5 mps 747 mmHg 57%
12:00 +30°C° 0 mm 5 mps 747 mmHg 54%
13:00 +30°C° 0 mm 4 mps 747 mmHg 52%
14:00 +32°C° 0 mm 4 mps 747 mmHg 49%
15:00 +32°C° 0 mm 4 mps 747 mmHg 50%
16:00 +31°C° 0 mm 3 mps 747 mmHg 51%
17:00 +31°C° 0 mm 3 mps 747 mmHg 52%
18:00 +30°C° 0 mm 3 mps 747 mmHg 59%
19:00 +28°C° 0 mm 3 mps 747 mmHg 66%
20:00 +27°C° 0 mm 3 mps 747 mmHg 72%
21:00 +26°C° 0 mm 2 mps 747 mmHg 75%
22:00 +25°C° 0 mm 2 mps 747 mmHg 78%
23:00 +24°C° 0 mm 2 mps 747 mmHg 80%

23 June, Wednesday

Time Temperature Precipitation Wind Pressure Humidity
00:00 +23°C° 0 mm 2 mps 747 mmHg 83%
01:00 +23°C° 0 mm 2 mps 747 mmHg 85%
02:00 +22°C° 0 mm 1 mps 748 mmHg 88%
03:00 +22°C° 0 mm 1 mps 748 mmHg 88%
04:00 +21°C° 0 mm 2 mps 748 mmHg 88%
05:00 +21°C° 0 mm 2 mps 748 mmHg 89%
06:00 +24°C° 0 mm 2 mps 748 mmHg 83%
07:00 +25°C° 0 mm 2 mps 748 mmHg 77%
08:00 +27°C° 0 mm 3 mps 749 mmHg 72%
09:00 +28°C° 0 mm 3 mps 749 mmHg 67%
10:00 +30°C° 0 mm 3 mps 748 mmHg 62%
11:00 +32°C° 0 mm 4 mps 748 mmHg 58%
12:00 +33°C° 0 mm 3 mps 748 mmHg 54%
13:00 +34°C° 0 mm 3 mps 748 mmHg 51%
14:00 +34°C° 0 mm 3 mps 748 mmHg 48%
15:00 +34°C° 0 mm 3 mps 748 mmHg 50%
16:00 +33°C° 0 mm 3 mps 748 mmHg 52%
17:00 +32°C° 0 mm 2 mps 748 mmHg 54%
18:00 +31°C° 0 mm 2 mps 748 mmHg 60%
19:00 +30°C° 0 mm 2 mps 749 mmHg 67%
20:00 +28°C° 0 mm 2 mps 749 mmHg 73%
21:00 +27°C° 0.3 mm 2 mps 749 mmHg 75%
22:00 +26°C° 0.3 mm 2 mps 749 mmHg 78%
23:00 +25°C° 0.3 mm 2 mps 749 mmHg 81%

24 June, Thursday

Time Temperature Precipitation Wind Pressure Humidity
00:00 +25°C° 0.3 mm 2 mps 749 mmHg 84%
01:00 +24°C° 0.3 mm 2 mps 749 mmHg 87%
02:00 +23°C° 0.3 mm 2 mps 749 mmHg 91%
03:00 +21°C° 0.2 mm 2 mps 750 mmHg 91%
04:00 +21°C° 0.2 mm 2 mps 750 mmHg 92%
05:00 +21°C° 0.2 mm 2 mps 750 mmHg 93%
06:00 +23°C° 0 mm 2 mps 750 mmHg 88%
07:00 +24°C° 0 mm 2 mps 750 mmHg 84%
08:00 +25°C° 0 mm 2 mps 750 mmHg 79%
09:00 +26°C° 0 mm 2 mps 750 mmHg 73%
10:00 +28°C° 0 mm 2 mps 750 mmHg 68%
11:00 +30°C° 0 mm 2 mps 750 mmHg 62%
12:00 +30°C° 0 mm 2 mps 750 mmHg 60%
13:00 +31°C° 0 mm 2 mps 750 mmHg 58%
14:00 +31°C° 0 mm 2 mps 750 mmHg 56%
15:00 +31°C° 0.1 mm 2 mps 749 mmHg 56%
16:00 +31°C° 0.1 mm 2 mps 749 mmHg 56%
17:00 +31°C° 0.1 mm 2 mps 749 mmHg 56%
18:00 +30°C° 0.1 mm 2 mps 749 mmHg 63%
19:00 +28°C° 0.1 mm 2 mps 749 mmHg 70%
20:00 +27°C° 0.1 mm 2 mps 748 mmHg 77%
21:00 +26°C° 0.9 mm 2 mps 749 mmHg 81%
22:00 +24°C° 0.9 mm 2 mps 749 mmHg 85%
23:00 +23°C° 0.9 mm 2 mps 749 mmHg 89%

25 June, Friday

Time Temperature Precipitation Wind Pressure Humidity
00:00 +23°C° 1.3 mm 2 mps 749 mmHg 91%
01:00 +21°C° 1.3 mm 2 mps 749 mmHg 93%
02:00 +22°C° 1.3 mm 1 mps 749 mmHg 94%
03:00 +21°C° 0.1 mm 2 mps 749 mmHg 95%
04:00 +21°C° 0.1 mm 2 mps 749 mmHg 95%
05:00 +20°C° 0.1 mm 3 mps 748 mmHg 96%
06:00 +21°C° 0 mm 2 mps 749 mmHg 92%
07:00 +23°C° 0 mm 2 mps 749 mmHg 88%
08:00 +24°C° 0 mm 2 mps 749 mmHg 85%
09:00 +25°C° 0 mm 2 mps 749 mmHg 79%
10:00 +26°C° 0 mm 2 mps 749 mmHg 74%
11:00 +27°C° 0 mm 2 mps 749 mmHg 69%
12:00 +27°C° 0.1 mm 2 mps 749 mmHg 69%
13:00 +27°C° 0.1 mm 3 mps 749 mmHg 68%
14:00 +27°C° 0.1 mm 3 mps 749 mmHg 68%
15:00 +27°C° 0.2 mm 3 mps 749 mmHg 69%
16:00 +27°C° 0.2 mm 3 mps 749 mmHg 71%
17:00 +27°C° 0.2 mm 3 mps 749 mmHg 72%
18:00 +26°C° 0.4 mm 3 mps 748 mmHg 77%
19:00 +24°C° 0.4 mm 3 mps 748 mmHg 81%
20:00 +22°C° 0.4 mm 3 mps 748 mmHg 86%
21:00 +21°C° 0.3 mm 3 mps 748 mmHg 88%
22:00 +21°C° 0.3 mm 3 mps 748 mmHg 90%
23:00 +20°C° 0.3 mm 4 mps 748 mmHg 92%
Show more